Нижнешадрино

Россия / Красноярский край     59°55′06″N   90°38′39″E
темп.,
°C
ветер,
м/с
пор.,
м/с
влажн.,
%
обл.,
%
осадки,
мм/ч
давл.,
гПа
погр.,
м
17 мая, пн
пн1701:00+1св225493 0.0 101653
04:000св1157100 0.0 101610
07:00+3ссз13447 0.0 1016268
10:00+7ссз353311 0.0 10151457
13:00+10сз35295 0.0 10142003
16:00+11сз452419 0.0 10132143
19:00+9ссз35275 0.0 10131795
22:00+4св224380 0.0 101422
18 мая, вт
вт1801:00+2всв114911 0.0 101312
04:00+1всв2153100 0.0 101312
07:00+5всв124156 0.0 1012179
10:00+9ссв22275 0.0 10091474
13:00+12с23235 0.0 10072130
16:00+13с44190 0.0 10062270
19:00+11с44255 0.0 10062157
22:00+5с37453 0.0 1009164
19 мая, ср
ср1901:00+2ссв26570 0.0 1010124
04:000ссв23623 0.0 101163
07:00+4с36410 0.0 1010464
10:00+7с452992 0.0 10092329
13:00+8ссз5430100 0.0 10082451
16:00+8ссз453296 0.0 10082246
19:00+6ссз563597 0.0 10092036
22:00+3ссз4951100 0.0 1009636
20 мая, чт
чт2001:00+2с4963100 0.0 1008616
04:00+2св41166100 0.3 1008971
07:00+3ссв51257100 0.6 1009855
10:00+6ссв6937100 0.0 10111326
13:00+9ссв5727100 0.0 10112183
16:00+11ссв4525100 0.0 10112749
19:00+11ссв342844 0.0 10122462
22:00+4св27515 0.0 1014141
21 мая, пт
пт2101:00+2св24632 0.0 101577
04:00+1св11690 0.0 101510
07:00+5св115212 0.0 1016207
10:00+11з11347 0.0 10161607
13:00+13зюз2230100 0.0 10152124
16:00+14юз2327100 0.0 10142462
19:00+12юз333482 0.0 10151671
22:00+6ююз125326 0.0 101611